| time (UTC) | temp F | wind direction | speed MPH | gust MPH | rain 1hr in | rain 24hr in | rain mn in | humidity % | barometer mb |
| 20260509100014 | 53 | 190 | 0.0 | 0.0 | 0.02 | 0.09 | 0.09 | 96 | 1007.7 |
| 20260509094509 | 53 | 190 | 0.0 | 0.0 | 0.03 | 0.09 | 0.09 | 95 | 1007.8 |
| 20260509093007 | 53 | 190 | 0.0 | 0.0 | 0.03 | 0.08 | 0.08 | 95 | 1007.6 |
| 20260509091502 | 53 | 190 | 0.0 | 0.0 | 0.05 | 0.08 | 0.08 | 95 | 1007.9 |
| 20260509090101 | 53 | 190 | 0.0 | 0.0 | 0.04 | 0.07 | 0.07 | 95 | 1008.4 |
| 20260509084559 | 53 | 190 | 0.0 | 0.0 | 0.04 | 0.06 | 0.06 | 95 | 1008.4 |
| 20260509083059 | 54 | 190 | 0.0 | 0.0 | 0.03 | 0.05 | 0.05 | 95 | 1008.6 |
| 20260509081532 | 54 | 190 | 0.0 | 0.0 | 0.02 | 0.03 | 0.03 | 94 | 1008.6 |
| 20260509080030 | 54 | 190 | 0.0 | 0.0 | 0.02 | 0.03 | 0.03 | 94 | 1008.4 |
| 20260509074556 | 54 | 190 | 0.0 | 0.0 | 0.01 | 0.02 | 0.02 | 94 | 1008.5 |
| 20260509073105 | 54 | 190 | 0.0 | 0.0 | 0.02 | 0.02 | 0.02 | 94 | 1008.4 |
| 20260509071526 | 54 | 190 | 0.0 | 0.0 | 0.01 | 0.01 | 0.01 | 94 | 1008.7 |
| 20260509070025 | 54 | 190 | 0.0 | 0.0 | 0.01 | 0.01 | 0.01 | 93 | 1008.9 |
| 20260509064553 | 54 | 190 | 0.0 | 0.0 | 0.01 | 0.01 | 0.01 | 93 | 1009.0 |
| 20260509063100 | 54 | 190 | 0.0 | 0.0 | 0.00 | 0.00 | 0.00 | 92 | 1009.0 |
| 20260509061536 | 54 | 190 | 0.0 | 0.0 | 0.00 | 0.00 | 0.00 | 92 | 1008.6 |
| 20260509060021 | 54 | 190 | 0.0 | 0.0 | 0.00 | 0.00 | 0.00 | 91 | 1008.7 |
| 20260509054515 | 54 | 190 | 0.0 | 0.0 | 0.00 | 0.00 | 0.00 | 90 | 1008.8 |
| 20260509053027 | 55 | 190 | 0.0 | 0.0 | 0.00 | 0.00 | 0.00 | 89 | 1008.9 |
| 20260509051512 | 55 | 190 | 0.0 | 0.0 | 0.00 | 0.00 | 0.00 | 88 | 1008.9 |
| 20260509050011 | 55 | 190 | 0.0 | 0.0 | 0.00 | 0.00 | 0.00 | 87 | 1009.0 |
| 20260509044508 | 55 | 190 | 0.0 | 0.0 | 0.00 | 0.00 | 0.00 | 86 | 1009.0 |
| 20260509043006 | 56 | 190 | 0.0 | 0.0 | 0.00 | 0.00 | 0.00 | 85 | 1009.0 |
| 20260509041505 | 56 | 190 | 0.0 | 0.0 | 0.00 | 0.00 | 0.00 | 83 | 1009.2 |
| 20260509040004 | 56 | 190 | 0.0 | 0.0 | 0.00 | 0.00 | 0.00 | 82 | 1009.3 |
| 20260509034604 | 57 | 190 | 0.0 | 0.0 | 0.00 | 0.00 | 0.00 | 80 | 1009.3 |
| 20260509033100 | 57 | 190 | 0.0 | 0.0 | 0.00 | 0.00 | 0.00 | 78 | 1009.4 |
| 20260509031555 | 58 | 190 | 0.0 | 0.0 | 0.00 | 0.00 | 0.00 | 77 | 1009.6 |
| 20260509030052 | 59 | 190 | 0.0 | 0.0 | 0.00 | 0.00 | 0.00 | 73 | 1009.5 |
| 20260509024550 | 62 | 190 | 0.0 | 0.0 | 0.00 | 0.00 | 0.00 | 55 | 1009.2 |
| 20260509023044 | 62 | 190 | 0.0 | 0.0 | 0.00 | 0.00 | 0.00 | 56 | 1009.1 |
| 20260509021543 | 62 | 190 | 0.0 | 0.0 | 0.00 | 0.00 | 0.00 | 56 | 1009.0 |
| 20260509020041 | 63 | 190 | 0.0 | 0.0 | 0.00 | 0.00 | 0.00 | 54 | 1008.9 |
| 20260509014540 | 63 | 190 | 0.0 | 0.0 | 0.00 | 0.00 | 0.00 | 54 | 1009.1 |
| 20260509013036 | 63 | 190 | 0.0 | 0.0 | 0.00 | 0.00 | 0.00 | 53 | 1009.1 |
| 20260509011533 | 64 | 190 | 0.0 | 0.0 | 0.00 | 0.00 | 0.00 | 52 | 1009.1 |
| 20260509010031 | 64 | 190 | 0.0 | 0.0 | 0.00 | 0.00 | 0.00 | 50 | 1009.0 |
| 20260509004535 | 65 | 190 | 0.0 | 0.0 | 0.00 | 0.00 | 0.00 | 47 | 1008.7 |
| 20260509003024 | 65 | 190 | 0.0 | 0.0 | 0.00 | 0.00 | 0.00 | 47 | 1008.5 |
| 20260509001523 | 65 | 190 | 0.0 | 0.0 | 0.00 | 0.00 | 0.00 | 46 | 1008.7 |
| 20260509000021 | 66 | 190 | 0.0 | 0.0 | 0.00 | 0.00 | 0.00 | 46 | 1008.7 |
| 20260508234519 | 66 | 190 | 0.0 | 0.0 | 0.00 | 0.00 | 0.00 | 46 | 1008.7 |
| 20260508233016 | 66 | 190 | 0.0 | 0.0 | 0.00 | 0.00 | 0.00 | 45 | 1008.7 |
| 20260508231515 | 66 | 190 | 0.0 | 0.0 | 0.00 | 0.00 | 0.00 | 44 | 1008.7 |
| 20260508230011 | 67 | 190 | 0.0 | 0.0 | 0.00 | 0.00 | 0.00 | 45 | 1008.5 |
| 20260508224510 | 67 | 190 | 0.0 | 0.0 | 0.00 | 0.00 | 0.00 | 43 | 1008.5 |
| 20260508223043 | 68 | 190 | 0.0 | 0.0 | 0.00 | 0.00 | 0.00 | 42 | 1008.4 |
| 20260508221538 | 68 | 190 | 0.0 | 0.0 | 0.00 | 0.00 | 0.00 | 42 | 1008.4 |
| 20260508220038 | 68 | 190 | 0.0 | 0.0 | 0.00 | 0.00 | 0.00 | 42 | 1008.4 |
| 20260508214535 | 68 | 190 | 0.0 | 0.0 | 0.00 | 0.00 | 0.00 | 41 | 1008.5 |
| 20260508213031 | 68 | 190 | 0.0 | 0.0 | 0.00 | 0.00 | 0.00 | 41 | 1008.6 |
| 20260508211538 | 68 | 190 | 0.0 | 0.0 | 0.00 | 0.00 | 0.00 | 40 | 1008.7 |
| 20260508210026 | 68 | 190 | 0.0 | 0.0 | 0.00 | 0.00 | 0.00 | 40 | 1008.9 |
| 20260508204524 | 68 | 190 | 0.0 | 0.0 | 0.00 | 0.00 | 0.00 | 39 | 1009.2 |
| 20260508203026 | 68 | 190 | 0.0 | 0.0 | 0.00 | 0.00 | 0.00 | 39 | 1009.4 |
| 20260508201521 | 68 | 190 | 0.0 | 11.0 | 0.00 | 0.00 | 0.00 | 39 | 1009.4 |
| 20260508200051 | 68 | 190 | 0.0 | 9.0 | 0.00 | 0.00 | 0.00 | 38 | 1009.7 |
| 20260508194554 | 68 | 190 | 0.0 | 12.0 | 0.00 | 0.00 | 0.00 | 39 | 1009.7 |
| 20260508193100 | 69 | 190 | 0.0 | 9.0 | 0.00 | 0.00 | 0.00 | 38 | 1009.8 |
| 20260508191547 | 69 | 190 | 0.0 | 11.0 | 0.00 | 0.00 | 0.00 | 38 | 1010.0 |
| 20260508190043 | 69 | 190 | 0.0 | 14.0 | 0.00 | 0.00 | 0.00 | 37 | 1010.3 |
| 20260508184543 | 68 | 190 | 0.0 | 13.0 | 0.00 | 0.00 | 0.00 | 39 | 1010.5 |
| 20260508183010 | 68 | 190 | 4.0 | 13.0 | 0.00 | 0.00 | 0.00 | 37 | 1010.7 |
| 20260508181509 | 69 | 190 | 1.0 | 7.0 | 0.00 | 0.00 | 0.00 | 37 | 1010.9 |
| 20260508180038 | 69 | 190 | 0.0 | 0.0 | 0.00 | 0.00 | 0.00 | 37 | 1011.2 |
| 20260508174538 | 69 | 190 | 0.0 | 7.0 | 0.00 | 0.00 | 0.00 | 38 | 1011.3 |
| 20260508173031 | 67 | 190 | 0.0 | 0.0 | 0.00 | 0.00 | 0.00 | 43 | 1011.6 |
| 20260508171535 | 67 | 190 | 0.0 | 14.0 | 0.00 | 0.00 | 0.00 | 43 | 1011.9 |
| 20260508170026 | 67 | 190 | 1.0 | 16.0 | 0.00 | 0.00 | 0.00 | 45 | 1012.2 |
| 20260508164524 | 67 | 190 | 1.0 | 12.0 | 0.00 | 0.00 | 0.00 | 43 | 1012.5 |
| 20260508163019 | 66 | 190 | 0.0 | 10.0 | 0.00 | 0.00 | 0.00 | 44 | 1012.6 |
| 20260508161517 | 66 | 190 | 0.0 | 9.0 | 0.00 | 0.00 | 0.00 | 44 | 1012.7 |
| 20260508160016 | 65 | 190 | 0.0 | 0.0 | 0.00 | 0.00 | 0.00 | 46 | 1013.1 |
| 20260508154513 | 64 | 190 | 3.0 | 12.0 | 0.00 | 0.00 | 0.00 | 46 | 1013.1 |
| 20260508153009 | 64 | 190 | 0.0 | 0.0 | 0.00 | 0.00 | 0.00 | 47 | 1013.4 |
| 20260508151509 | 62 | 190 | 0.0 | 0.0 | 0.00 | 0.00 | 0.00 | 47 | 1013.5 |
| 20260508150010 | 62 | 190 | 0.0 | 8.0 | 0.00 | 0.00 | 0.00 | 48 | 1013.6 |
| 20260508144502 | 61 | 190 | 0.0 | 0.0 | 0.00 | 0.00 | 0.00 | 49 | 1013.6 |
| 20260508143033 | 60 | 190 | 2.0 | 12.0 | 0.00 | 0.00 | 0.00 | 47 | 1013.8 |
| 20260508141533 | 60 | 190 | 0.0 | 8.0 | 0.00 | 0.00 | 0.00 | 52 | 1013.9 |
| 20260508140029 | 58 | 190 | 2.0 | 9.0 | 0.00 | 0.00 | 0.00 | 54 | 1014.0 |
| 20260508134529 | 56 | 190 | 0.0 | 7.0 | 0.00 | 0.00 | 0.00 | 56 | 1014.1 |
| 20260508133027 | 55 | 190 | 0.0 | 4.0 | 0.00 | 0.00 | 0.00 | 59 | 1014.1 |
| 20260508131530 | 53 | 190 | 0.0 | 8.0 | 0.00 | 0.00 | 0.00 | 60 | 1014.1 |
| 20260508130023 | 53 | 190 | 0.0 | 0.0 | 0.00 | 0.00 | 0.00 | 64 | 1013.9 |
| 20260508124522 | 52 | 190 | 0.0 | 2.0 | 0.00 | 0.00 | 0.00 | 65 | 1013.9 |
| 20260508123022 | 50 | 190 | 0.0 | 0.0 | 0.00 | 0.00 | 0.00 | 69 | 1013.8 |
| 20260508121521 | 47 | 190 | 0.0 | 0.0 | 0.00 | 0.00 | 0.00 | 70 | 1013.9 |
| 20260508120032 | 48 | 190 | 0.0 | 0.0 | 0.00 | 0.00 | 0.00 | 70 | 1013.9 |
| 20260508114520 | 47 | 190 | 0.0 | 0.0 | 0.00 | 0.00 | 0.00 | 71 | 1013.7 |
| 20260508111531 | 46 | 190 | 0.0 | 0.0 | 0.00 | 0.00 | 0.00 | 71 | 1013.5 |
| 20260508110027 | 46 | 190 | 0.0 | 0.0 | 0.00 | 0.00 | 0.00 | 71 | 1013.4 |
| 20260508104527 | 46 | 190 | 0.0 | 0.0 | 0.00 | 0.00 | 0.00 | 70 | 1013.3 |
| 20260508103022 | 47 | 190 | 0.0 | 0.0 | 0.00 | 0.00 | 0.00 | 70 | 1013.3 |
| 20260508101514 | 47 | 190 | 0.0 | 0.0 | 0.00 | 0.00 | 0.00 | 69 | 1013.3 |